Regional Weather Roundup
Issued by NWS

Home | Current Version | Previous Version | Text Only | Print | Product List | Glossary On
Versions: 1 2 3 4 5 6 7 8 9 10 11 12 13 14 15 16 17 18 19 20 21 22 23 24 25 26 27 28 29 30 31 32 33 34 35 36 37 38 39 40 41 42 43 44 45 46 47 48 49 50
259
ASUS44 KLIX 280501
RWRLA
LOUISIANA WEATHER ROUNDUP
NATIONAL WEATHER SERVICE NEW ORLEANS LA
1200 AM CDT MON JUL 28 2014

NOTE: "FAIR" INDICATES FEW OR NO CLOUDS BELOW 12,000 FEET WITH NO
      SIGNIFICANT WEATHER AND/OR OBSTRUCTIONS TO VISIBILITY.
      SKY/WX - SKY CONDITION AND SIGNIFICANT WEATHER.
      TMP - AIR TEMPERATURE.    DP   - DEWPOINT TEMPERATURE.
      RH  - RELATIVE HUMIDITY.  PRES - PRESSURE.
      HX  - HEAT INDEX.         WCI  - WIND CHILL INDEX.

*  THESE STATIONS ARE NOT NWS OR FAA STATIONS AND ARE NOT UNDER
   NWS QUALITY CONTROL.

LAZ040-048-061>063-065-066-069-280600-
SOUTHEAST LOUISIANA

CITY           SKY/WX    TMP DP  RH WIND       PRES   REMARKS
N.O. AUDUBON     N/A     82  78  88 MISG        N/A
N.O. INTL ARPT PTCLDY    82  76  81 W9        30.07S
N.O. LAKEFRONT PTCLDY    84  77  79 SW12      30.07R
N.O. DOWNTOWN* FAIR      84  73  70 SW5       30.08R
SLIDELL        MOCLDY    83  76  79 VRB3      30.06R
BATON ROUGE    PTCLDY    81  76  84 SW9       30.07R
BOOTHVILLE     PTCLDY    84  77  79 W9        30.08S
BELLE CHASSE   CLEAR     82  76  81 SW6       30.07R
BOGALUSA*      FAIR      82  75  79 W3        30.07S
GALLIANO*      NOT AVBL
NEW ROADS*     FAIR      80  76  89 S5        30.06S
GONZALES*      FAIR      81  80  97 CALM      30.07R
HAMMOND*       PTCLDY    82  75  78 SW5       30.08S
HOUMA*         CLEAR     80  74  81 CALM      30.08S
PORT FOURCHON* PTCLDY    84  75  74 W9        30.09F

$$

LAZ041-044-053-054-280600-
SOUTHWEST LOUISIANA

CITY           SKY/WX    TMP DP  RH WIND       PRES   REMARKS
LAKE CHARLES   CLEAR     81  76  84 SW5       30.06S
LAFAYETTE      CLEAR     81  75  82 SW6       30.07S
PATTERSON      CLEAR     79  77  94 CALM      30.12S
SALT POINT       N/A     87  76  69 VRB6      30.07S HX  97
NEW IBERIA     CLEAR     80  75  84 SW5       30.08R
CHENAULT AIRPK CLEAR     83  75  75 SW6       30.08R

$$

LAZ027-028-280600-
CENTRAL LOUISIANA

CITY           SKY/WX    TMP DP  RH WIND       PRES   REMARKS
FORT POLK      CLEAR     80  75  84 SW7       30.05F
ALEXANDRIA INT CLEAR     81  75  82 SW6       30.02F
ALEXANDRIA     CLEAR     82  76  81 SW6       30.04S

$$

LAZ001-002-280600-
NORTHWEST LOUISIANA

CITY           SKY/WX    TMP DP  RH WIND       PRES   REMARKS
SHREVEPORT     MOCLDY    82  73  74 SW5       30.01F
BARKSDALE AFB  PTCLDY    84  73  69 SW7       30.01F
DTN SHREVEPORT PTCLDY    84  71  65 SW6       30.01S

$$

LAZ014-016-280600-
NORTHEAST LOUISIANA

CITY           SKY/WX    TMP DP  RH WIND       PRES   REMARKS
MONROE         PTCLDY    81  74  79 SW5       30.01F
TALLULAH       PTCLDY    79  75  87 SW3       30.00F

$$




USA.gov is the U.S. government's official web portal to all federal, state and local government web resources and services.